Погода в Морском

Россия / Калининградская область     55°13′46″N   20°55′01″E
темп.,
°C
ветер,
м/с
пор.,
м/с
влажн.,
%
обл.,
%
осадки,
мм/ч
давл.,
гПа
погр.,
м
13 апреля, вт
вт1323:00+4зсз81189100 1.3 1022636
02:00+4з6886100 1.3 1022283
05:00+5сз71081100 0.0 1023313
08:00+4сз6882100 0.1 1024278
11:00+4сз5780100 0.0 1024332
14:00+4сз5781100 0.0 1025485
17:00+4зсз5680100 0.0 1024461
20:00+4сз4585100 0.0 1024388
14 апреля, ср
ср1423:00+4зсз4586100 0.0 1023345
02:00+4сз4486100 0.0 1022315
05:00+4сз3384100 0.0 1022264
08:00+4с3482100 0.0 1022257
11:00+4с4580100 0.0 1022280
14:00+5ссз8983100 0.0 1022236
17:00+5ссз101380100 0.0 1022261
20:00+5с91282100 0.0 1022218
15 апреля, чт
чт1523:00+6ссв71176100 0.0 1022236
02:00+5ссв101377100 0.0 1022619
05:00+4ссв101582100 0.3 1021841
08:00+5ссв101476100 0.8 1022685
11:00+6св81279100 0.1 1022342
14:00+7св91271100 0.1 1021181
17:00+6ссв5778100 0.6 102176
20:00
16 апреля, пт
пт1623:00+5ссв6986100 1.8 1022167
02:00+5ссв71083100 3.4 1021276
05:00+5ссв81190100 1.5 1021399
08:00+5ссв71084100 2.7 1021375
11:00+5св71090100 1.4 1021394
14:00+5св6988100 2.3 1022225
17:00+7ссв5689100 0.3 102247
20:00+8св6882100 0.0 102352
17 апреля, сб
сб1723:00+6ссв71094100 1.8 1023122
02:00+7св71088100 1.9 1023106
05:00+7св6987100 0.0 102388
08:00+6всв71087100 0.0 1024158
11:00+7всв5784100 0.0 102557
14:00+9всв5581100 0.0 102528
17:00+10в557736 0.0 102527
20:00+9всв667992 0.0 102636